VKG172 ESSA-EFHK

Flight info

Callsign VKG172
Flight time 0h 40m
Altitude 31000
Route TOVRI N851 RIKUM RIRIP Y364 LAKUT
Aircraft A321/M-VGDW/C

Departure

Time 2026-04-23 19:06
Airport Stockholm-Arlanda Airport (ESSA)

Arrival

Time 2026-04-23 19:47
Airport Helsinki Vantaa Airport (EFHK)
Time Latitude Longitude Altitude Speed Heading
2026-04-23 18:46 59.64733 17.92608 146 ft 0 kts 32°
2026-04-23 18:49 59.64733 17.92609 147 ft 0 kts 32°
2026-04-23 18:52 59.64726 17.92600 146 ft 2 kts 36°
2026-04-23 18:53 59.64715 17.92584 146 ft 2 kts 34°
2026-04-23 18:53 59.64704 17.92570 146 ft 2 kts 33°
2026-04-23 18:53 59.64694 17.92557 146 ft 1 kts 15°
2026-04-23 18:53 59.64682 17.92562 146 ft 1 kts 311°
2026-04-23 18:54 59.64678 17.92585 146 ft 2 kts 277°
2026-04-23 18:54 59.64675 17.92611 146 ft 0 kts 290°
2026-04-23 18:58 59.64675 17.92609 146 ft 0 kts 289°
2026-04-23 18:58 59.64685 17.92548 146 ft 9 kts 287°
2026-04-23 18:59 59.64708 17.92389 146 ft 12 kts 286°
2026-04-23 18:59 59.64733 17.92218 147 ft 13 kts 286°
2026-04-23 18:59 59.64775 17.92084 146 ft 11 kts 343°
2026-04-23 18:59 59.64861 17.92094 146 ft 13 kts
2026-04-23 19:00 59.64954 17.92126 147 ft 14 kts 12°
2026-04-23 19:00 59.65053 17.92165 146 ft 15 kts 10°
2026-04-23 19:00 59.65162 17.92203 147 ft 16 kts 10°
2026-04-23 19:00 59.65277 17.92244 147 ft 17 kts 10°
2026-04-23 19:01 59.65391 17.92300 146 ft 17 kts 27°
2026-04-23 19:01 59.65481 17.92453 146 ft 17 kts 50°
2026-04-23 19:01 59.65535 17.92664 146 ft 17 kts 74°
2026-04-23 19:01 59.65568 17.92897 147 ft 17 kts 75°
2026-04-23 19:02 59.65586 17.93054 147 ft 17 kts 80°
2026-04-23 19:02 59.65628 17.93297 147 ft 13 kts 50°
2026-04-23 19:02 59.65678 17.93404 146 ft 0 kts 46°
2026-04-23 19:04 59.65679 17.93405 147 ft 0 kts 46°
2026-04-23 19:04 59.65686 17.93419 147 ft 2 kts 45°
2026-04-23 19:04 59.65710 17.93466 146 ft 5 kts 46°
2026-04-23 19:04 59.65720 17.93486 147 ft 0 kts 46°
2026-04-23 19:05 59.65745 17.93539 147 ft 10 kts 46°
2026-04-23 19:05 59.65818 17.93683 147 ft 12 kts 44°
2026-04-23 19:05 59.65868 17.93828 147 ft 7 kts 74°
2026-04-23 19:05 59.65868 17.93835 147 ft 0 kts 74°
2026-04-23 19:06 59.65877 17.93901 147 ft 28 kts 75°
2026-04-23 19:06 59.65992 17.94802 147 ft 105 kts 75°
2026-04-23 19:06 59.66227 17.96632 187 ft 161 kts 74°
2026-04-23 19:06 59.66483 17.98721 905 ft 154 kts 72°
2026-04-23 19:07 59.66704 18.00664 1715 ft 143 kts 68°
2026-04-23 19:07 59.66954 18.02604 2233 ft 153 kts 66°
2026-04-23 19:07 59.67232 18.04753 2644 ft 169 kts 67°
2026-04-23 19:07 59.67504 18.07089 3049 ft 185 kts 68°
2026-04-23 19:08 59.67800 18.09700 3468 ft 202 kts 68°
2026-04-23 19:08 59.68121 18.12526 3786 ft 225 kts 69°
2026-04-23 19:08 59.68473 18.15686 4193 ft 247 kts 70°
2026-04-23 19:08 59.68849 18.19106 4725 ft 264 kts 71°
2026-04-23 19:09 59.69234 18.22678 5476 ft 273 kts 71°
2026-04-23 19:09 59.69629 18.26382 6310 ft 277 kts 71°
2026-04-23 19:09 59.70025 18.30078 7114 ft 281 kts 71°
2026-04-23 19:09 59.70430 18.33862 7974 ft 284 kts 71°
2026-04-23 19:10 59.70836 18.37666 8824 ft 286 kts 70°
2026-04-23 19:10 59.71244 18.41472 9654 ft 287 kts 70°
2026-04-23 19:10 59.71662 18.45358 10457 ft 291 kts 70°
2026-04-23 19:10 59.72094 18.49352 10907 ft 306 kts 70°
2026-04-23 19:11 59.72551 18.53597 11250 ft 324 kts 71°
2026-04-23 19:11 59.73023 18.58024 11664 ft 337 kts 71°
2026-04-23 19:11 59.73501 18.62572 12327 ft 343 kts 71°
2026-04-23 19:11 59.73981 18.67186 13045 ft 345 kts 71°
2026-04-23 19:12 59.74303 18.70268 13495 ft 347 kts 71°
2026-04-23 19:12 59.75215 18.76354 14366 ft 343 kts 60°
2026-04-23 19:12 59.76287 18.80460 14995 ft 339 kts 51°
2026-04-23 19:12 59.77587 18.84324 15634 ft 340 kts 48°
2026-04-23 19:13 59.78949 18.88201 16254 ft 342 kts 47°
2026-04-23 19:13 59.80298 18.92036 16852 ft 345 kts 47°
2026-04-23 19:13 59.81656 18.95918 17443 ft 347 kts 47°
2026-04-23 19:13 59.83028 18.99855 18022 ft 349 kts 47°
2026-04-23 19:14 59.84412 19.03844 18589 ft 352 kts 47°
2026-04-23 19:14 59.85786 19.07814 19142 ft 354 kts 47°
2026-04-23 19:14 59.87177 19.11850 19681 ft 356 kts 47°
2026-04-23 19:14 59.88577 19.15910 20191 ft 359 kts 47°
2026-04-23 19:15 59.89977 19.19990 20716 ft 361 kts 46°
2026-04-23 19:15 59.91391 19.24114 21210 ft 364 kts 47°
2026-04-23 19:15 59.92832 19.28323 21715 ft 366 kts 46°
2026-04-23 19:15 59.94253 19.32484 22215 ft 368 kts 46°
2026-04-23 19:16 59.95643 19.36722 22713 ft 373 kts 50°
2026-04-23 19:16 59.96838 19.41391 23173 ft 383 kts 56°
2026-04-23 19:16 59.97760 19.46413 23612 ft 394 kts 63°
2026-04-23 19:17 59.99120 19.57096 24496 ft 402 kts 66°
2026-04-23 19:17 59.99764 19.62490 24938 ft 404 kts 66°
2026-04-23 19:17 60.00422 19.68005 25357 ft 407 kts 66°
2026-04-23 19:17 60.01079 19.73507 25709 ft 411 kts 66°
2026-04-23 19:18 60.01740 19.79032 26126 ft 414 kts 66°
2026-04-23 19:18 60.02401 19.84586 26554 ft 415 kts 66°
2026-04-23 19:18 60.03068 19.90199 26918 ft 419 kts 66°
2026-04-23 19:18 60.03742 19.95878 27284 ft 422 kts 66°
2026-04-23 19:19 60.05083 20.07285 28261 ft 421 kts 66°
2026-04-23 19:19 60.05738 20.12916 28821 ft 418 kts 66°
2026-04-23 19:20 60.07046 20.24164 29745 ft 418 kts 66°
2026-04-23 19:20 60.07703 20.29825 30093 ft 420 kts 66°
2026-04-23 19:20 60.08361 20.35509 30447 ft 422 kts 66°
2026-04-23 19:20 60.09018 20.41229 30785 ft 423 kts 66°
2026-04-23 19:21 60.09675 20.46972 30902 ft 425 kts 66°
2026-04-23 19:21 60.10976 20.58438 30906 ft 424 kts 66°
2026-04-23 19:22 60.12261 20.69865 30903 ft 425 kts 66°
2026-04-23 19:22 60.14014 20.87282 30899 ft 436 kts 73°
2026-04-23 19:23 60.14389 20.99424 30897 ft 438 kts 76°
2026-04-23 19:24 60.14868 21.17595 30886 ft 436 kts 75°
2026-04-23 19:24 60.15369 21.35618 30366 ft 432 kts 75°
2026-04-23 19:25 60.15696 21.47524 29563 ft 426 kts 75°
2026-04-23 19:25 60.16013 21.59278 28293 ft 425 kts 74°
2026-04-23 19:26 60.16325 21.71102 27258 ft 425 kts 75°
2026-04-23 19:26 60.16474 21.76969 26695 ft 424 kts 75°
2026-04-23 19:27 60.16758 21.88626 25734 ft 417 kts 75°
2026-04-23 19:27 60.17160 22.05782 24297 ft 409 kts 75°
2026-04-23 19:28 60.17415 22.17028 23291 ft 402 kts 75°
2026-04-23 19:28 60.17658 22.28125 22271 ft 397 kts 75°
2026-04-23 19:29 60.17775 22.33641 21780 ft 395 kts 75°
2026-04-23 19:29 60.18004 22.44561 20652 ft 394 kts 76°
2026-04-23 19:30 60.18218 22.55418 19606 ft 390 kts 77°
2026-04-23 19:30 60.18321 22.60858 19094 ft 388 kts 77°
2026-04-23 19:30 60.18517 22.71593 18093 ft 384 kts 78°
2026-04-23 19:31 60.18613 22.76903 17645 ft 380 kts 78°
2026-04-23 19:31 60.18702 22.82126 17253 ft 376 kts 78°
2026-04-23 19:31 60.18791 22.87354 16882 ft 373 kts 79°
2026-04-23 19:31 60.18876 22.92482 16527 ft 372 kts 79°
2026-04-23 19:32 60.18962 22.97707 16166 ft 371 kts 79°
2026-04-23 19:32 60.19043 23.02834 15764 ft 369 kts 79°
2026-04-23 19:32 60.19122 23.07914 15306 ft 367 kts 79°
2026-04-23 19:32 60.19197 23.13012 14859 ft 364 kts 80°
2026-04-23 19:33 60.19273 23.18058 14347 ft 364 kts 80°
2026-04-23 19:33 60.19346 23.23083 13862 ft 362 kts 80°
2026-04-23 19:33 60.19482 23.33109 12867 ft 359 kts 81°
2026-04-23 19:34 60.19548 23.38068 12387 ft 356 kts 81°
2026-04-23 19:34 60.19610 23.43023 11903 ft 353 kts 81°
2026-04-23 19:34 60.19729 23.52766 10961 ft 346 kts 82°
2026-04-23 19:35 60.19783 23.57531 10516 ft 342 kts 82°
2026-04-23 19:35 60.19835 23.62223 10172 ft 334 kts 82°
2026-04-23 19:35 60.19880 23.66806 10033 ft 320 kts 83°
2026-04-23 19:35 60.19921 23.71170 9940 ft 305 kts 82°
2026-04-23 19:36 60.19960 23.75311 9866 ft 292 kts 82°
2026-04-23 19:36 60.20003 23.79375 9766 ft 293 kts 82°
2026-04-23 19:36 60.20047 23.83461 9444 ft 290 kts 82°
2026-04-23 19:36 60.20089 23.87478 9093 ft 288 kts 83°
2026-04-23 19:37 60.20128 23.91464 8787 ft 283 kts 83°
2026-04-23 19:37 60.20161 23.95346 8488 ft 279 kts 83°
2026-04-23 19:37 60.20195 23.99199 8194 ft 275 kts 83°
2026-04-23 19:37 60.20226 24.03015 7898 ft 270 kts 84°
2026-04-23 19:38 60.20256 24.06749 7603 ft 267 kts 84°
2026-04-23 19:38 60.20284 24.10411 7297 ft 264 kts 84°
2026-04-23 19:38 60.20312 24.14084 6984 ft 261 kts 84°
2026-04-23 19:38 60.20338 24.17661 6675 ft 258 kts 84°
2026-04-23 19:39 60.20363 24.21260 6363 ft 256 kts 85°
2026-04-23 19:39 60.20385 24.24822 6052 ft 253 kts 85°
2026-04-23 19:39 60.20406 24.28320 5751 ft 251 kts 85°
2026-04-23 19:39 60.20427 24.31784 5422 ft 249 kts 85°
2026-04-23 19:40 60.20448 24.35284 5035 ft 250 kts 85°
2026-04-23 19:40 60.20467 24.38720 4647 ft 247 kts 85°
2026-04-23 19:40 60.20484 24.42121 4256 ft 243 kts 86°
2026-04-23 19:40 60.20501 24.45492 3865 ft 240 kts 85°
2026-04-23 19:41 60.20515 24.48833 3469 ft 236 kts 86°
2026-04-23 19:41 60.20530 24.52076 3081 ft 233 kts 86°
2026-04-23 19:41 60.20537 24.54240 2818 ft 231 kts 86°
2026-04-23 19:41 60.20554 24.58470 2326 ft 226 kts 86°
2026-04-23 19:42 60.20565 24.61527 2300 ft 218 kts 86°
2026-04-23 19:42 60.20576 24.64581 2350 ft 218 kts 85°
2026-04-23 19:42 60.20921 24.67419 2269 ft 204 kts 59°
2026-04-23 19:42 60.21721 24.69597 2260 ft 180 kts 45°
2026-04-23 19:43 60.22533 24.71245 2245 ft 158 kts 41°
2026-04-23 19:43 60.23268 24.72723 2213 ft 144 kts 42°
2026-04-23 19:43 60.23964 24.74180 2239 ft 144 kts 43°
2026-04-23 19:43 60.24651 24.75673 2154 ft 144 kts 43°
2026-04-23 19:44 60.25308 24.77128 1955 ft 140 kts 44°
2026-04-23 19:44 60.25957 24.78578 1755 ft 137 kts 44°
2026-04-23 19:44 60.26593 24.79994 1574 ft 137 kts 44°
2026-04-23 19:44 60.27226 24.81397 1394 ft 136 kts 44°
2026-04-23 19:45 60.27862 24.82807 1202 ft 136 kts 44°
2026-04-23 19:45 60.28491 24.84200 1021 ft 136 kts 44°
2026-04-23 19:45 60.29126 24.85602 832 ft 135 kts 45°
2026-04-23 19:45 60.29766 24.87015 643 ft 135 kts 45°
2026-04-23 19:46 60.30393 24.88399 460 ft 135 kts 45°
2026-04-23 19:46 60.31027 24.89807 272 ft 135 kts 46°
2026-04-23 19:46 60.31650 24.91170 164 ft 124 kts 46°
2026-04-23 19:46 60.32147 24.92244 182 ft 86 kts 47°
2026-04-23 19:47 60.32399 24.92794 189 ft 76 kts 50°
2026-04-23 19:47 60.32834 24.93768 201 ft 64 kts 49°
2026-04-23 19:47 60.33073 24.94295 205 ft 28 kts 52°
2026-04-23 19:47 60.33116 24.94590 204 ft 19 kts 87°
2026-04-23 19:48 60.33114 24.94860 205 ft 19 kts 92°
2026-04-23 19:48 60.33109 24.95101 207 ft 15 kts 82°
2026-04-23 19:48 60.33163 24.95293 206 ft 17 kts 48°
2026-04-23 19:48 60.33200 24.95500 206 ft 17 kts 111°
2026-04-23 19:49 60.33113 24.95690 201 ft 19 kts 137°
2026-04-23 19:49 60.32997 24.95857 198 ft 21 kts 150°
2026-04-23 19:49 60.32867 24.96005 197 ft 21 kts 150°
2026-04-23 19:49 60.32748 24.96145 195 ft 17 kts 150°
2026-04-23 19:50 60.32659 24.96249 193 ft 13 kts 150°
2026-04-23 19:50 60.32602 24.96316 192 ft 3 kts 149°
2026-04-23 19:50 60.32596 24.96324 192 ft 0 kts 149°
2026-04-23 19:50 60.32582 24.96340 191 ft 8 kts 150°
2026-04-23 19:51 60.32514 24.96420 188 ft 14 kts 150°
2026-04-23 19:51 60.32417 24.96533 183 ft 17 kts 150°
2026-04-23 19:51 60.32301 24.96669 179 ft 20 kts 150°
2026-04-23 19:51 60.32181 24.96806 178 ft 12 kts 150°
2026-04-23 19:52 60.32137 24.96856 179 ft 7 kts 152°
2026-04-23 19:52 60.32085 24.96820 182 ft 6 kts 221°
2026-04-23 19:52 60.32059 24.96769 184 ft 4 kts 226°
2026-04-23 19:52 60.32030 24.96736 184 ft 4 kts 192°
2026-04-23 19:53 60.31994 24.96733 185 ft 5 kts 178°
2026-04-23 19:53 60.31971 24.96735 186 ft 0 kts 177°
2026-04-23 19:53 60.31967 24.96736 186 ft 0 kts 177°
2026-04-23 19:54 60.31966 24.96736 186 ft 0 kts 177°